Location: Pcim
(49.7500°N, 19.9670°E)
Time: 08:23:30
(UTC+02:00)

EO-79 - Pass Details

Date: 29 April 2024
Orbit: 563 x 574 km, 98.0° (Epoch: 20 May)

Event Time Altitude Azimuth Distance (km) Brightness Sun altitude
Rises 03:15:09 0° 22° (NNE) 2,803 ? -16.9°
Reaches altitude 10° 03:17:29 10° 32° (NNE) 1,900 ? -16.7°
Maximum altitude 03:21:12 32° 97° (E) 1,008 ? -16.3°
Drops below altitude 10° 03:24:53 10° 161° (SSE) 1,887 ? -15.9°
Enters shadow 03:25:06 - 162° (SSE) 1,969 ? -15.9°
